Location: Beerendries
(50.8338°N, 3.7779°E)
Time: 15:45:32
(UTC+00:00)

Daily predictions for brighter satellites

Satellite Brightness Start Highest point End
(mag) Time Altitude Azimuth Time Altitude Azimuth Time Altitude Azimuth
Gbstr 26 Del rocket 3.2 20:28:13 10° WSW 20:32:31 76° SSE 20:37:48 10° ENE
Timation 2 Rocket 4.3 20:27:04 10° S 20:33:00 44° ESE 20:38:45 10° NE
Cosmos 1125 Rocket 4.3 20:30:33 10° SSE 20:35:14 33° ESE 20:39:57 10° NE
USA 276 2.2 20:36:42 10° W 20:39:34 51° SSW 20:42:31 10° ESE
Cosmos 2084 3.6 20:39:21 10° SSW 20:43:17 43° SE 20:47:03 10° NE
SPOT 3 Rocket 3.8 20:39:12 10° SSE 20:44:19 62° ENE 20:49:30 10° N
NOSS 2-2 (E) 3.0 20:47:42 10° SSW 20:50:48 45° SE 20:53:49 10° NE
NOSS 2-2 (C) 2.6 20:47:58 10° SW 20:51:08 72° SE 20:54:17 10° NE
Nadezhda 3 Rocket 4.1 20:46:34 10° N 20:52:45 86° W 20:58:53 10° S
Landsat 4 4.0 20:49:57 10° SE 20:53:12 43° ENE 20:56:30 10° N
In-Cosmos 22 Rocket 4.3 20:47:38 10° S 20:53:18 67° E 20:58:52 10° NNE
Cosmos 1544 Rocket 4.1 20:49:55 10° N 20:54:05 43° ENE 20:58:03 11° SE
BREEZE-M DEB (TANK) 3.6 20:51:31 10° W 20:54:17 51° SSW 21:01:25 10° ESE
NOSS 2-3 (E) 3.3 20:53:25 10° SSW 20:56:59 54° SE 21:01:00 10° NE
Cosmos 1844 4.1 20:52:01 10° SW 20:57:48 73° WNW 21:03:35 10° NNE
Terra 1.9 20:53:29 10° S 20:58:12 78° WSW 21:02:58 10° NNW
Meteor 1-21 Rocket 4.4 20:59:16 10° SSW 21:04:48 74° WNW 21:10:22 10° N
USA 305 3.5 21:01:44 10° W 21:05:27 47° N 21:08:47 10° ENE
ATLAS CENTAUR R/B 2.0 21:03:21 10° NW 21:07:10 45° SW 21:10:52 11° SSE
Cosmos 1437 Rocket 3.6 21:07:20 13° SSE 21:09:59 29° E 21:13:10 10° NNE
Meteor 2-1 Rocket 4.3 21:07:33 10° NNW 21:13:13 79° W 21:18:44 10° S
Cosmos 1833 Rocket 2.8 21:07:42 10° NNW 21:13:23 75° ENE 21:18:22 14° SE
Cosmos 1455 Rocket 3.9 21:10:17 10° NNW 21:14:32 47° W 21:18:43 10° SSW
NOSS 2-3 (C) 3.1 21:11:06 10° SW 21:14:43 77° SE 21:18:52 10° NE
Cosmos 1975 Rocket 3.3 21:14:44 10° SSW 21:19:12 76° W 21:23:41 10° N
Orbus 7S? 4.5 21:17:32 10° W 21:19:36 19° SW 21:21:20 12° S
Cosmos 1025 Rocket 4.4 21:15:46 10° SW 21:19:44 38° WNW 21:23:45 10° N
Cosmos 44 3.9 21:15:14 10° S 21:20:07 40° ESE 21:24:50 10° NE
Cosmos 962 Rocket 4.5 21:15:58 10° S 21:22:08 73° E 21:28:16 10° NNE
Lacrosse 5 2.3 21:17:08 10° WSW 21:22:11 69° NNW 21:27:14 10° ENE
ERS-1 Rocket 4.0 21:19:19 10° SSW 21:24:04 42° W 21:28:49 10° NNW
Cosmos 220 Rocket 3.9 21:20:39 10° NNW 21:24:48 77° WSW 21:28:09 15° SSE
Spot 2 Rocket 4.1 21:20:00 10° S 21:25:00 55° W 21:30:02 10° NNW
Cosmos 2082 Rocket 3.3 21:21:17 10° NNW 21:26:28 35° NE 21:31:35 10° ESE
NOSS 2-2 (D) 2.9 21:25:24 10° SW 21:28:35 76° NW 21:31:47 10° NE
USA 307 3.4 21:24:51 10° W 21:28:42 53° N 21:32:21 10° ENE
ATLAS 5 CENTAUR R/B 3.1 21:25:39 10° W 21:28:46 32° NNW 21:32:20 10° NNE
Cosmos 2218 Rocket 4.2 21:23:41 12° SSE 21:29:15 53° E 21:35:15 10° NNE
Landsat 5 3.8 21:26:11 10° NNE 21:30:30 53° E 21:34:10 14° S
Cosmos 1844 Rocket 4.2 21:28:50 10° WSW 21:34:01 39° NW 21:39:15 10° NNE
Cosmos 2278 Rocket 3.1 21:31:13 15° SSE 21:34:57 30° ESE 21:39:48 10° NE
Cosmos 1606 3.3 21:31:29 10° NNW 21:34:57 47° W 21:38:05 12° SSW
MetOp-A 3.6 21:35:02 16° SSE 21:38:41 85° ENE 21:43:02 10° NNW
Cosmos 2298 Rocket 4.1 21:34:00 10° S 21:39:13 60° ESE 21:44:28 10° NNE
ULPM Upper Stage 4.1 21:36:00 10° NW 21:40:05 36° NNE 21:44:07 10° E
Cosmos 2341 Rocket 4.0 21:33:55 10° S 21:40:11 79° E 21:46:34 10° NNE
Cosmos 614 Rocket 3.9 21:35:43 10° NNW 21:40:50 82° ENE 21:44:35 18° SSE
Cosmos 1869 4.3 21:43:10 10° NNW 21:46:45 39° W 21:50:08 11° SSW
H-2A R/B 4.1 21:44:33 12° ESE 21:47:05 21° ENE 21:49:59 10° NNE
CZ-4C R/B 3.8 21:43:47 10° NW 21:49:56 43° NNE 21:57:30 10° E
Cosmos 1536 Rocket 3.5 21:47:10 17° S 21:50:23 65° E 21:54:41 10° NNE
Ariane Rocket 4.2 21:47:51 10° SSW 21:52:30 36° W 21:57:11 10° NNW
ISS -3.6 21:50:08 10° W 21:53:27 75° N 21:56:47 10° E
COSMOS 2406 4.0 21:50:44 10° NNW 21:56:11 44° NE 22:00:48 14° ESE
USA 290 3.5 21:58:14 22° ESE 21:58:38 23° ESE 22:01:15 10° NE
ARIANE 5 R/B 2.9 21:58:54 22° SE 22:01:41 60° ENE 22:06:06 10° N
Cosmos 1269 Rocket 4.2 21:58:13 10° NNW 22:03:32 65° ENE 22:07:06 21° SE
BREEZE-M DEB (TANK) 3.9 21:54:02 10° WNW 22:03:54 36° SW 22:06:11 21° S
Cosmos 1727 Rocket 4.1 21:57:58 10° N 22:04:20 70° ENE 22:08:48 20° SSE
Cosmos 2228 3.7 22:01:00 10° NNW 22:05:03 47° W 22:08:06 16° SSW
ATLAS 3B R/B 3.7 22:01:26 19° SSE 22:05:20 30° ESE 22:11:41 10° NE
Geosat 4.4 22:04:27 10° NNE 22:09:27 67° NW 22:14:25 10° SW
Cosmos 1943 Rocket 2.9 22:08:20 21° SSE 22:11:19 36° ESE 22:16:23 10° NE
USA 276 4.0 22:11:26 10° WSW 22:13:09 16° SW 22:13:09 16° SW
Cosmos 1821 Rocket 4.1 22:09:49 19° S 22:14:30 70° E 22:20:50 10° NNE
USA 281 4.3 22:10:01 10° ESE 22:15:59 39° NE 22:21:58 10° NNW
Gbstr 26 Del rocket 3.6 22:14:31 10° W 22:19:17 80° N 22:25:16 10° E
Cosmos 2058 4.1 22:19:03 22° SE 22:20:31 28° E 22:24:04 10° NNE
Cosmos 2150 Rocket 4.4 22:15:32 10° SSW 22:20:55 70° WNW 22:26:24 10° NNE
ALOS 2 3.6 22:19:19 19° ESE 22:21:51 36° ENE 22:25:53 10° N
Cosmos 2084 Rocket 3.1 22:21:22 10° NW 22:25:23 89° NE 22:27:21 28° SE
Spot 4 4.2 22:23:23 23° SE 22:26:14 57° ENE 22:31:00 10° N
NOSS 3-1 (C) 3.0 22:24:38 10° SSW 22:29:32 72° SE 22:35:33 10° NE
Cosmos 1544 3.9 22:30:25 18° ENE 22:30:25 18° ENE 22:31:33 10° NE
SeaSat 1 2.7 22:26:56 21° SE 22:30:09 65° NE 22:35:03 10° NNW
Cosmos 1932 4.5 22:26:45 10° NW 22:33:00 80° NE 22:37:30 20° SE
Cosmos 1812 2.4 22:31:37 10° N 22:35:11 78° E 22:36:28 37° SSE
Terra 4.4 22:35:11 10° WSW 22:36:36 11° W 22:38:03 10° WNW
USA 305 2.9 22:34:29 10° WNW 22:38:02 54° NNE 22:40:35 14° E
Cosmos 1238 Rocket 3.5 22:37:34 10° N 22:40:42 35° ENE 22:42:01 26° ESE
Aureole 2 4.1 22:41:11 36° SSW 22:42:21 86° WNW 22:45:47 10° NNE
BREEZE-M R/B 3.9 22:38:11 10° WSW 22:42:38 69° SSE 22:58:09 10° E
PSLV R/B 3.8 22:39:03 10° NNE 22:43:03 76° ESE 22:44:51 31° S
Cosmos 1892 Rocket 3.5 22:45:05 30° S 22:47:14 75° E 22:51:42 10° NNE
Cosmos 2251 Rocket 4.4 22:42:12 10° NNW 22:47:21 45° ENE 22:51:01 18° ESE
Cosmos 1140 Rocket 3.5 22:46:50 10° NNW 22:51:59 75° ENE 22:54:48 27° SE
MINOTAUR 4 R/B 3.3 22:53:49 10° NNE 22:56:40 81° ESE 22:57:02 64° S
Cosmos 1833 Rocket 4.4 22:52:32 10° NW 22:56:43 21° W 23:00:03 13° SW
Cosmos 2239 Rocket 4.5 22:55:30 22° SSW 22:59:39 83° W 23:05:57 10° N
Cosmos 44 4.4 22:56:15 10° WSW 23:01:17 47° NW 23:06:06 10° NE
BREEZE-M DEB (TANK) 3.7 22:58:41 10° W 23:01:37 60° S 23:09:25 10° ESE
SL-08 R/B 4.5 22:57:34 22° SSW 23:01:39 82° W 23:07:48 10° N
USA 307 2.9 22:58:27 10° WNW 23:02:17 62° NNE 23:05:32 11° E
Cosmos-2242 3.5 23:00:00 10° N 23:04:05 47° ENE 23:05:51 29° SE
Cosmos 2123 Rocket 4.0 22:57:50 10° N 23:04:10 90° SW 23:07:51 27° S
CENTAUR R/B 4.2 22:58:09 10° NW 23:05:25 45° NNE 23:13:54 10° E
Lacrosse 5 3.2 23:00:57 10° WNW 23:05:46 41° N 23:10:35 10° ENE
NOSS 3-1 (A) 3.1 23:03:57 24° SSW 23:06:58 65° SE 23:12:57 10° NE
Cosmos 1726 Rocket 4.3 23:03:01 10° NNW 23:07:06 41° W 23:09:05 25° SW
NOSS 8 (F) 4.5 23:05:26 10° NW 23:08:27 58° SW 23:09:06 47° S
Cosmos 2082 Rocket 2.6 23:05:19 10° NW 23:10:46 52° WSW 23:13:28 28° S
Cosmos 1515 3.8 23:10:36 10° N 23:14:02 53° ENE 23:14:57 39° SE
Cosmos 2278 Rocket 2.8 23:13:11 10° SW 23:18:44 56° NW 23:24:20 10° NNE
ULPM Upper Stage 3.0 23:15:24 10° NW 23:19:40 53° SW 23:20:59 38° S
Lacrosse 4 Rocket 3.7 23:20:40 11° ESE 23:20:45 11° ESE 23:21:47 10° E
PSLV R/B 3.9 23:16:33 10° NNE 23:20:47 52° E 23:22:20 34° SSE
Cosmos 2369 Rocket 3.4 23:19:37 22° SE 23:21:31 27° ESE 23:26:08 10° NE
H-2A R/B 2.9 23:20:31 32° SSW 23:21:47 43° W 23:25:28 10° NNW
Cosmos 489 Rocket 4.4 23:24:25 27° S 23:27:59 75° ESE 23:34:13 10° NNE
Cosmos 1190 Rocket 4.4 23:24:24 10° NNW 23:29:35 59° ENE 23:32:46 23° SE
ISS -3.8 23:26:56 10° W 23:30:09 56° SSW 23:30:09 56° SSW
Cosmos 2058 Rocket 3.8 23:28:48 10° NNW 23:32:55 42° W 23:34:37 29° SW
USA 290 4.1 23:30:56 15° WSW 23:32:56 26° NW 23:35:43 10° N
Cosmos 1782 2.6 23:29:40 10° NNW 23:33:30 82° W 23:34:35 45° S
USA 229 DEB 4.1 23:32:18 28° SSE 23:34:52 41° ESE 23:41:05 10° NE
USA 229 4.1 23:32:27 28° SSE 23:35:00 40° ESE 23:41:12 10° NE
CRYOSAT 2 4.4 23:30:47 10° N 23:35:41 81° W 23:37:58 32° SSW
Cosmos 1862 3.9 23:35:38 34° SE 23:36:37 41° E 23:40:16 10° NNE
Cosmos 1378 2.6 23:34:21 10° N 23:37:36 82° E 23:38:06 60° SSE
Cosmos 482 Debris 4.0 23:34:22 10° WSW 23:38:53 87° NNW 23:42:09 10° ENE
CZ-4C R/B 2.9 23:32:02 10° NW 23:39:02 79° SW 23:45:35 19° SE
COSMOS 2455 3.8 23:34:02 10° NNW 23:39:53 47° NE 23:45:41 10° ESE
Meteor 2-2 Rocket 4.2 23:34:37 10° NNW 23:40:22 85° W 23:43:24 30° S
COSMOS 2406 3.9 23:35:12 10° NW 23:40:27 39° WSW 23:42:50 27° SSW
Cosmos 1934 Rocket 4.2 23:39:12 24° SSW 23:43:09 65° WNW 23:49:22 10° N
Cosmos 2221 3.6 23:40:46 10° N 23:44:44 36° ENE 23:46:52 22° SE
Cosmos 2285 Rocket 4.0 23:45:04 10° NNW 23:51:33 87° ENE 23:55:34 25° SSE
USA 81 4.2 23:49:21 10° N 23:54:36 66° W 23:57:04 31° SSW
Cosmos 1825 Rocket 4.5 23:54:06 27° SE 23:55:43 37° E 23:59:42 10° NNE
